TimeEST,TemperatureF,Dew PointF,Humidity,Sea Level PressureIn,VisibilityMPH,Wind Direction,Wind SpeedMPH,Gust SpeedMPH,PrecipitationIn,Events,Conditions,WindDirDegrees,DateUTC
12:54 AM,23.0,19.9,88,30.68,6.0,Calm,Calm,-,N/A,,Clear,0,2012-11-18 05:54:00
1:54 AM,19.9,17.1,89,30.67,5.0,Calm,Calm,-,N/A,,Clear,0,2012-11-18 06:54:00
2:54 AM,21.9,19.0,89,30.66,8.0,South,3.5,-,N/A,,Clear,180,2012-11-18 07:54:00
3:54 AM,19.9,17.1,89,30.66,9.0,Calm,Calm,-,N/A,,Clear,0,2012-11-18 08:54:00
4:54 AM,19.9,17.1,89,30.69,8.0,Calm,Calm,-,N/A,,Clear,0,2012-11-18 09:54:00
5:54 AM,19.0,15.1,85,30.70,8.0,Calm,Calm,-,N/A,,Clear,0,2012-11-18 10:54:00
6:54 AM,19.0,16.0,88,30.72,9.0,Calm,Calm,-,N/A,,Clear,0,2012-11-18 11:54:00
7:54 AM,23.0,21.0,92,30.73,7.0,Calm,Calm,-,N/A,,Clear,0,2012-11-18 12:54:00
8:54 AM,30.0,24.1,79,30.72,8.0,Calm,Calm,-,N/A,,Clear,0,2012-11-18 13:54:00
9:54 AM,35.1,28.0,76,30.70,10.0,Calm,Calm,-,N/A,,Clear,0,2012-11-18 14:54:00
10:54 AM,41.0,25.0,53,30.69,10.0,Calm,Calm,-,N/A,,Clear,0,2012-11-18 15:54:00
11:54 AM,44.1,23.0,43,30.66,10.0,Calm,Calm,-,N/A,,Clear,0,2012-11-18 16:54:00
12:54 PM,46.0,21.0,37,30.64,10.0,Calm,Calm,-,N/A,,Clear,0,2012-11-18 17:54:00
1:54 PM,48.0,12.9,24,30.62,10.0,Variable,4.6,-,N/A,,Clear,0,2012-11-18 18:54:00
2:54 PM,46.9,24.1,41,30.62,10.0,NW,6.9,-,N/A,,Clear,320,2012-11-18 19:54:00
3:54 PM,43.0,24.1,47,30.63,10.0,Calm,Calm,-,N/A,,Clear,0,2012-11-18 20:54:00
4:54 PM,33.1,25.0,72,30.63,10.0,Calm,Calm,-,N/A,,Clear,0,2012-11-18 21:54:00
5:54 PM,36.0,25.0,64,30.64,10.0,South,3.5,-,N/A,,Clear,170,2012-11-18 22:54:00
6:54 PM,27.0,21.9,81,30.65,10.0,Calm,Calm,-,N/A,,Clear,0,2012-11-18 23:54:00
7:54 PM,28.0,21.9,78,30.64,10.0,Calm,Calm,-,N/A,,Clear,0,2012-11-19 00:54:00
8:54 PM,25.0,21.0,85,30.63,10.0,Calm,Calm,-,N/A,,Clear,0,2012-11-19 01:54:00
9:54 PM,26.1,21.0,81,30.62,9.0,Calm,Calm,-,N/A,,Clear,0,2012-11-19 02:54:00
10:54 PM,27.0,21.9,81,30.61,10.0,East,3.5,-,N/A,,Clear,100,2012-11-19 03:54:00